Weather in Adashevo

Russia / Republic of Mordovia     53°56′48″N   44°19′10″E
temp.,
°C
wind,
m/s
gust,
m/s
humid.,
%
clouds,
%
prec.,
mm/h
press.,
hPa
HPBL,
m
3 march, wed
wed300:00−4wnw369682 0.1 1005139
03:00−5wnw399779 0.1 1006232
06:00−3nw61092100 0.1 1007756
09:00−6nw6119398 0.2 1009586
12:00−5nw61090100 0.1 1010664
15:00−4nw71087100 0.1 1011903
18:00−5wnw41088100 0.1 1011566
21:00−6w5129596 0.1 1012369
4 march, thu
thu400:00−4wsw6139598 0.1 1009522
03:00−3wsw6139499 0.3 1008651
06:00−3wsw71393100 0.3 1005809
09:00−2wsw81593100 0.4 1003690
12:000w91594100 0.2 10011046
15:000wsw81398100 0.7 1001898
18:00−1wsw71297100 1.4 1001724
21:00−1wsw61197100 2.7 1001619
5 march, fri
fri500:00−1sw41097100 0.9 1000416
03:000sw4899100 2.2 999369
06:00−3nne4697100 2.4 999214
09:00−4nne4795100 3.6 1001434
12:00−3n5793100 0.5 1004569
15:00−4n3591100 0.8 1007570
18:00−9n229396 0.1 101021
21:00−13ne119484 0.1 101321
6 march, sat
sat600:00−14e019299 0.0 101421
03:00−15ese009194 0.0 101420
06:00−16w009465 0.0 101320
09:00−12wsw119243 0.0 101354
12:00−7wsw3492100 0.1 1013334
15:00−6nw5788100 0.4 1013802
18:00−11nw468865 0.1 1014109
21:00−16nw239532 0.1 101620
7 march, sun
sun700:00−18wsw22940 0.0 101720
03:00−17sw33900 0.0 101626
06:00−16ssw499522 0.0 1014147
09:00−11ssw7139254 0.0 1012497
12:00−6sw91583100 0.0 10081005
15:00−5sw101880100 0.0 10041205
18:00−5sw111992100 0.3 10001203
21:00−3sw101890100 1.1 9981121